This demonstration page uses our WeatherBlox Daily Observations layout. Learn more.

Left ArrowRight Arrow

Hourly Observations for May 9, 2017

Temp ( °F °C ) Dew Point ( °F °C ) Humidity (%) Winds ( mph kmh ) Pressure ( in mb ) Visibility ( mi km ) Precip ( " mm )
12:15 am 00:15 Clear 63 17 52 11 68 68 NNE 8 13 29.94 1014 10 16 0.00 0.00
12:35 am 00:35 Partly Cloudy 61 16 52 11 72 72 NNE 6 9 29.94 1014 10 16 0.00 0.00
12:55 am 00:55 Mostly Clear 61 16 52 11 72 72 NE 6 9 29.94 1014 10 16 0.00 0.00
1:15 am 01:15 Clear 59 15 52 11 77 77 NNE 7 11 29.97 1015 10 16 0.00 0.00
1:35 am 01:35 Clear 59 15 50 10 72 72 NNE 7 11 29.97 1015 10 16 0.00 0.00
1:55 am 01:55 Clear 61 16 52 11 72 72 NNE 5 7 29.94 1014 10 16 0.00 0.00
2:15 am 02:15 Clear 57 14 50 10 77 77 NNE 5 7 29.97 1015 10 16 0.00 0.00
2:35 am 02:35 Clear 59 15 50 10 72 72 NNE 6 9 29.97 1015 10 16 0.00 0.00
2:55 am 02:55 Clear 59 15 50 10 72 72 N 6 9 29.97 1015 10 16 0.00 0.00
3:15 am 03:15 Clear 59 15 50 10 72 72 N 6 9 29.97 1015 10 16 0.00 0.00
3:35 am 03:35 Clear 59 15 50 10 72 72 N 10 17 29.97 1015 10 16 0.00 0.00
3:55 am 03:55 Clear 57 14 50 10 77 77 N 8 13 29.97 1015 10 16 0.00 0.00
4:15 am 04:15 Clear 55 13 50 10 82 82 N 9 15 29.97 1015 10 16 0.00 0.00
4:35 am 04:35 Clear 57 14 50 10 77 77 N 12 19 29.97 1015 10 16 0.00 0.00
4:55 am 04:55 Clear 57 14 50 10 77 77 N 12 19 29.97 1015 10 16 0.00 0.00
5:15 am 05:15 Mostly Cloudy 57 14 50 10 77 77 N 12 19 29.97 1015 10 16 0.00 0.00
5:35 am 05:35 Partly Cloudy 57 14 48 9 72 72 NNW 12 19 30.00 1016 10 16 0.00 0.00
5:55 am 05:55 Clear 57 14 48 9 72 72 N 14 22 29.97 1015 10 16 0.00 0.00
6:15 am 06:15 Clear 57 14 48 9 72 72 N 14 22 30.00 1016 10 16 0.00 0.00
6:35 am 06:35 Sunny 57 14 48 9 72 72 N 13 20 30.00 1016 10 16 0.00 0.00
6:55 am 06:55 Sunny 55 13 46 8 72 72 N 14 22 30.00 1016 10 16 0.00 0.00
7:15 am 07:15 Mostly Sunny 55 13 46 8 72 72 NNE 14 22 30.00 1016 10 16 0.00 0.00
7:35 am 07:35 Mostly Sunny 55 13 46 8 72 72 NNE 14 22 30.00 1016 10 16 0.00 0.00
7:55 am 07:55 Sunny 57 14 46 8 67 67 NNE 13 20 30.00 1016 10 16 0.00 0.00
8:15 am 08:15 Sunny 59 15 46 8 63 63 NE 17 28 30.00 1016 10 16 0.00 0.00
8:35 am 08:35 Sunny 61 16 48 9 63 63 NE 17 28 29.97 1015 10 16 0.00 0.00
8:55 am 08:55 Sunny 61 16 46 8 59 59 NE 21 33 29.97 1015 10 16 0.00 0.00
9:15 am 09:15 Sunny 63 17 48 9 59 59 ENE 22 35 29.97 1015 10 16 0.00 0.00
9:35 am 09:35 Sunny 63 17 48 9 59 59 ENE 17 28 29.97 1015 10 16 0.00 0.00
9:55 am 09:55 Sunny 63 17 48 9 59 59 ENE 22 35 29.94 1014 10 16 0.00 0.00
10:15 am 10:15 Sunny 64 18 48 9 56 56 ENE 18 30 29.97 1015 10 16 0.00 0.00
10:35 am 10:35 Sunny 64 18 48 9 56 56 ENE 17 28 29.97 1015 10 16 0.00 0.00
10:55 am 10:55 Sunny 66 19 48 9 52 52 ENE 13 20 29.97 1015 10 16 0.00 0.00
11:15 am 11:15 Sunny 66 19 48 9 52 52 NE 14 22 29.97 1015 10 16 0.00 0.00
11:35 am 11:35 Sunny 70 21 48 9 46 46 ENE 16 26 29.91 1013 10 16 0.00 0.00
11:55 am 11:55 Sunny 70 21 50 10 50 50 E 14 22 29.91 1013 10 16 0.00 0.00
12:15 pm 12:15 Sunny 70 21 50 10 50 50 E 9 15 29.91 1013 10 16 0.00 0.00
12:35 pm 12:35 Sunny 72 22 52 11 50 50 E 12 19 29.91 1013 10 16 0.00 0.00
12:55 pm 12:55 Sunny 72 22 52 11 50 50 E 12 19 29.91 1013 10 16 0.00 0.00
1:15 pm 13:15 Mostly Sunny 72 22 52 11 50 50 E 7 11 29.91 1013 10 16 0.00 0.00
1:35 pm 13:35 Mostly Cloudy 73 23 52 11 47 47 ENE 6 9 29.85 1011 10 16 0.00 0.00
1:55 pm 13:55 Partly Cloudy 73 23 52 11 47 47 Calm 29.85 1011 10 16 0.00 0.00
2:15 pm 14:15 Mostly Sunny 73 23 54 12 50 50 NE 7 11 29.85 1011 10 16 0.00 0.00
2:35 pm 14:35 Mostly Cloudy 75 24 54 12 47 47 NE 10 17 29.85 1011 10 16 0.00 0.00
2:55 pm 14:55 Cloudy 73 23 52 11 47 47 E 10 17 29.85 1011 10 16 0.00 0.00
3:15 pm 15:15 Partly Cloudy 75 24 54 12 47 47 E 6 9 29.83 1010 10 16 0.00 0.00
3:35 pm 15:35 Mostly Cloudy 75 24 54 12 47 47 NE 8 13 29.83 1010 10 16 0.00 0.00
3:55 pm 15:55 Mostly Cloudy 73 23 52 11 47 47 SE 9 15 29.83 1010 10 16 0.00 0.00
4:15 pm 16:15 Partly Cloudy 75 24 52 11 44 44 Calm 29.83 1010 10 16 0.00 0.00
4:35 pm 16:35 Cloudy 75 24 52 11 44 44 ENE 7 11 29.80 1009 10 16 0.00 0.00
4:55 pm 16:55 Cloudy 75 24 52 11 44 44 NNE 5 7 29.80 1009 10 16 0.00 0.00
5:15 pm 17:15 Mostly Cloudy 77 25 54 12 44 44 E 8 13 29.80 1009 10 16 0.00 0.00
5:35 pm 17:35 Cloudy 75 24 52 11 44 44 NE 14 22 29.80 1009 10 16 0.00 0.00
5:55 pm 17:55 Mostly Cloudy 73 23 52 11 47 47 NNE 8 13 29.80 1009 10 16 0.00 0.00
6:15 pm 18:15 Partly Cloudy 77 25 54 12 44 44 ENE 14 22 29.77 1008 10 16 0.00 0.00
6:35 pm 18:35 Mostly Sunny 75 24 52 11 44 44 NE 14 22 29.77 1008 10 16 0.00 0.00
6:55 pm 18:55 Sunny 75 24 52 11 44 44 NNE 15 24 29.77 1008 10 16 0.00 0.00
7:15 pm 19:15 Sunny 73 23 52 11 47 47 NE 14 22 29.77 1008 10 16 0.00 0.00
7:35 pm 19:35 Sunny 73 23 50 10 44 44 NE 16 26 29.77 1008 10 16 0.00 0.00
7:55 pm 19:55 Sunny 72 22 48 9 44 44 NNE 15 24 29.80 1009 10 16 0.00 0.00
8:15 pm 20:15 Sunny 70 21 48 9 46 46 NNE 17 28 29.80 1009 10 16 0.00 0.00
8:35 pm 20:35 Sunny 68 20 46 8 46 46 NE 14 22 29.80 1009 10 16 0.00 0.00
8:55 pm 20:55 Clear 66 19 45 7 46 46 NNE 12 19 29.80 1009 10 16 0.00 0.00
9:15 pm 21:15 Clear with Nearby Thunderstorms 64 18 45 7 49 49 NNE 14 22 29.83 1010 10 16 0.00 0.00
9:35 pm 21:35 Mostly Clear 64 18 45 7 49 49 NE 16 26 29.83 1010 10 16 0.00 0.00
9:55 pm 21:55 Mostly Clear 63 17 45 7 52 52 NE 14 22 29.85 1011 10 16 0.00 0.00
10:15 pm 22:15 Clear 63 17 43 6 49 49 NE 12 19 29.85 1011 10 16 0.00 0.00
10:35 pm 22:35 Partly Cloudy 63 17 43 6 49 49 NE 13 20 29.85 1011 10 16 0.00 0.00
10:55 pm 22:55 Partly Cloudy 63 17 43 6 49 49 ENE 14 22 29.85 1011 10 16 0.00 0.00
11:35 pm 23:35 Mostly Cloudy 61 16 43 6 52 52 NE 13 20 29.85 1011 10 16 0.00 0.00
11:55 pm 23:55 Mostly Cloudy 61 16 43 6 52 52 ENE 14 22 29.83 1010 10 16 0.00 0.00

Powered by AerisWeather